Вернуться в каталог

DELTA 2 R/B(1)

АктивенLEO
NORAD 24809·ROCKET BODY·🇺🇸 United States

Запущен May 20, 1997 с Cape Canaveral Space Force Station

Loading…

Ближайшие Пролёты (ближайшие 24 часа)

TLE

СвежийSource: Space-Track

Эпоха: Sep 14, 2026, 22:34 UTC

1 24809U 97025B   26257.94073175  .00000351  00000-0  14336-3 0  9993
2 24809  26.2916 194.9524 0662219  57.0628 309.1823 13.31075269425979

Отслеживайте DELTA 2 R/B(1) в реальном времени с AllMySat

Download on the App Store